Cloud_Cover
0 100 76 22 11 17 1 8 13 0 0 0 0 2 88 52 100 16 19 5 37 5 29 100 100 100 100 100 100 100 100 100 99 95 58 100 89 100 100 100 100 79 96
0 76 11 14 3 5 0 1 5 3 0 0 19 19 100 96 87 80 15 6 4 3 1 50 100 99 100 100 100 98 94 100 100 99 100 100 100 100 100 100 100 100 100
5 100 16 0 0 0 2 2 0 5 1 0 2 100 100 97 100 100 98 26 16 0 0 0 1 88 100 100 100 100 74 100 100 100 100 100 100 100 100 100 100 100 100
8 1 5 5 4 5 0 5 5 5 1 93 100 100 100 100 100 100 97 73 26 13 5 0 0 3 74 100 100 100 100 100 100 100 100 100 100 100 100 100 100 100 100
100 97 98 96 49 4 5 5 22 18 63 100 100 100 100 100 100 100 100 100 56 4 5 5 0 0 6 90 62 45 98 100 100 100 100 100 100 100 100 100 100 100 100
100 100 99 77 82 94 48 5 5 16 45 6 100 100 100 60 95 100 100 100 98 34 2 1 6 10 5 5 29 59 97 100 100 100 100 100 100 100 100 100 100 100 100
99 100 100 100 100 100 91 99 100 53 37 6 100 100 100 100 100 93 93 60 8 79 5 5 5 5 17 5 5 5 5 99 16 100 100 100 100 100 100 98 100 100 100
100 74 100 100 100 100 100 99 64 69 28 16 20 100 36 25 80 100 47 43 5 6 14 5 6 49 17 8 23 5 5 14 91 10 7 100 100 100 100 100 100 100 100
100 99 100 100 100 100 81 100 84 100 73 10 11 3 67 12 5 3 1 5 29 51 17 5 5 5 64 56 11 12 72 5 5 7 56 94 100 100 100 100 100 100 100
100 100 86 100 100 100 100 66 100 73 86 6 45 2 2 0 4 18 4 5 5 5 80 21 5 6 5 8 71 91 73 10 4 5 24 10 98 100 100 100 100 100 100
100 100 95 66 100 100 100 100 100 95 71 23 6 4 3 2 5 15 9 27 81 75 33 12 20 5 5 6 8 18 6 5 5 5 12 5 20 47 100 100 100 100 100
100 100 100 100 100 100 100 100 100 100 100 100 89 75 0 5 5 5 29 44 19 21 22 5 30 42 55 90 5 5 23 5 5 14 68 58 7 39 93 100 100 100 100
100 100 100 100 100 100 100 100 100 100 100 100 100 100 70 5 5 4 96 8 57 8 5 66 28 67 62 100 8 5 6 8 5 5 20 100 52 39 96 100 100 100 100
100 100 100 100 100 100 98 100 100 100 100 100 100 100 100 92 32 5 5 100 80 99 98 95 17 5 86 96 99 94 13 5 5 5 5 16 100 100 100 100 100 100 100
100 100 100 100 100 100 100 100 100 100 100 100 100 100 100 100 100 86 35 88 97 95 99 100 100 100 100 100 100 100 100 93 5 37 5 20 79 100 100 99 100 100 100
100 100 100 100 100 100 100 100 100 100 100 100 100 100 100 86 42 83 76 80 100 100 100 100 100 78 96 100 100 95 100 100 17 5 5 6 39 100 100 100 100 100 100
100 100 100 100 100 100 100 100 100 100 100 100 100 100 100 100 66 99 100 100 100 100 100 100 100 100 100 100 97 5 9 76 98 42 5 5 14 73 100 100 100 100 100
100 100 100 100 100 100 100 100 100 100 100 100 100 100 100 100 100 100 100 100 100 100 100 100 100 100 100 98 55 93 56 94 36 38 53 26 36 96 100 100 100 100 100
100 100 100 100 100 100 100 100 100 100 100 100 100 100 100 100 100 100 100 100 100 100 100 100 100 98 76 98 72 82 97 100 47 7 86 93 55 42 99 100 100 100 100
100 100 100 100 100 100 100 100 100 100 100 100 100 100 100 100 100 100 100 100 100 100 100 100 100 100 100 100 64 81 98 100 100 67 92 76 55 92 86 96 100 100 100
100 100 100 100 100 100 100 100 100 100 100 100 100 100 100 100 100 100 100 100 100 100 100 100 100 100 100 100 93 93 100 99 98 100 100 100 100 100 100 100 100 100 100
100 100 100 100 100 100 100 100 100 100 100 100 100 100 100 100 100 100 100 100 100 100 100 100 100 100 100 100 100 100 100 100 100 100 100 100 100 100 100 100 100 100 100
100 100 100 100 100 100 100 100 100 100 100 100 100 100 100 100 100 100 100 100 100 100 100 100 100 100 100 100 100 100 100 100 100 100 100 100 100 100 100 100 100 100 100
100 100 100 100 100 100 100 100 100 100 100 100 100 100 100 100 100 100 100 68 81 100 100 100 100 100 100 100 100 100 100 100 100 100 100 100 100 100 100 100 100 100 100
100 100 100 100 100 100 100 100 100 100 100 100 100 100 100 100 100 92 59 97 99 58 94 100 100 100 100 100 100 100 100 100 100 100 100 100 100 100 100 100 100 100 100
100 100 100 100 100 100 100 100 100 100 100 100 100 100 100 100 100 100 100 100 100 100 75 99 100 100 100 100 88 90 100 100 100 100 100 100 100 100 100 100 100 100 100